Probability
0 0 0 0 0 0 0 0 0 0 0 0 0 0 0 0 0 0 0 0 0 0 0 0 0 0 0 0 0 0 0 0 0 0 0 0 1 2 2 3 7 13 16 17 17 16 13 9 7
0 0 0 0 0 0 0 0 0 0 0 0 0 0 0 0 0 0 0 0 0 0 0 0 0 0 0 0 0 0 0 0 0 0 0 0 0 1 1 1 4 7 9 12 16 19 21 20 18
0 0 0 0 0 0 0 0 0 0 0 0 0 0 0 0 0 0 0 0 0 0 0 0 0 0 0 0 0 0 0 0 0 0 0 0 0 0 0 0 1 1 3 5 10 16 22 27 31
0 0 0 0 0 0 0 0 0 0 0 0 0 0 0 0 0 0 0 0 0 0 0 0 0 0 0 0 0 0 0 0 0 0 0 0 0 0 0 0 0 0 0 1 3 6 11 18 25
0 0 0 0 0 0 0 0 0 0 0 0 0 0 0 0 0 0 0 0 0 0 0 0 0 0 0 0 0 0 0 0 0 0 0 0 0 0 0 0 0 0 0 0 0 1 2 5 9
0 0 0 0 0 0 0 0 0 0 0 0 0 0 0 0 0 0 0 0 0 0 0 0 0 0 0 0 0 0 0 0 0 0 0 0 0 0 0 0 0 0 0 0 0 0 0 0 1
0 0 0 0 0 0 0 0 0 0 0 0 0 0 0 0 0 0 0 0 0 0 0 0 0 0 0 0 0 0 0 0 0 0 0 0 0 0 0 0 0 0 0 0 0 0 0 0 0
0 0 0 0 0 0 0 0 0 0 0 0 0 0 0 0 0 0 0 0 0 0 0 0 0 0 0 0 0 0 0 0 0 0 0 0 0 0 0 0 0 0 0 0 0 0 0 0 0
0 0 0 0 0 0 0 0 0 0 0 0 0 0 0 0 0 0 0 0 0 0 0 0 0 0 0 0 0 0 0 0 0 0 0 0 0 0 0 0 0 0 0 0 0 0 0 0 0
0 0 0 0 0 0 0 0 0 0 0 0 0 0 0 0 0 0 0 0 0 0 0 0 0 0 0 0 0 0 0 0 0 0 0 0 0 0 0 0 0 0 0 0 0 0 0 0 0
0 0 0 0 0 0 0 0 0 0 0 0 0 0 0 0 0 0 0 0 0 0 0 0 0 0 0 0 0 0 0 0 0 0 0 0 0 0 0 0 0 0 0 0 0 0 0 0 0
0 0 0 0 0 0 0 0 0 0 0 0 0 0 0 0 0 0 0 0 0 0 0 0 0 0 0 0 0 0 0 0 0 0 0 0 0 0 0 0 0 0 0 0 0 0 0 0 0
0 0 0 0 0 0 0 0 0 0 0 0 0 0 0 0 0 0 0 0 0 0 0 0 0 0 0 0 0 0 0 0 0 0 0 0 0 0 0 0 0 0 0 0 0 0 0 0 0
0 0 0 0 0 0 0 0 0 0 0 0 0 0 0 0 0 0 0 0 0 0 0 0 0 0 0 0 0 0 0 0 0 0 0 0 0 0 0 0 0 0 0 0 0 0 0 0 0
0 0 0 0 0 0 0 0 0 0 0 0 0 0 0 0 0 0 0 0 0 0 0 0 0 0 0 0 0 0 0 0 0 0 0 0 0 0 0 0 0 0 0 0 0 0 0 0 0
0 0 0 0 0 0 0 0 0 0 0 0 0 0 0 0 0 0 0 0 0 0 0 0 0 0 0 0 0 0 0 0 0 0 0 0 0 0 0 0 0 0 0 0 0 0 0 0 0
0 0 0 0 0 0 0 0 0 0 0 0 0 0 0 0 0 0 0 0 0 0 0 0 0 0 0 0 0 0 0 0 0 0 0 0 0 0 0 0 0 0 0 0 0 0 0 0 0
0 0 0 0 0 0 0 0 0 0 0 0 0 0 0 0 0 0 0 0 0 0 0 0 0 0 0 0 0 0 0 0 0 0 0 0 0 0 0 0 0 0 0 0 0 0 0 0 0
0 0 0 0 0 0 0 0 0 0 0 0 0 0 0 0 0 0 0 0 0 0 0 0 0 0 0 0 0 0 0 0 0 0 0 0 0 0 0 0 0 0 0 0 0 0 0 0 0
0 0 0 0 0 0 0 0 0 0 0 0 0 0 0 0 0 0 0 0 0 0 0 0 0 0 0 0 0 0 0 0 0 0 0 0 0 0 0 0 0 0 0 0 0 0 0 0 0
0 0 0 0 0 0 0 0 0 0 0 0 0 0 0 0 0 0 0 0 0 0 0 0 0 0 0 0 0 0 0 0 0 0 0 0 0 0 0 0 0 0 0 0 0 0 0 0 0
0 0 0 0 0 0 0 0 0 0 0 0 0 0 0 0 0 0 0 0 0 0 0 0 0 0 0 0 0 0 0 0 0 0 0 0 0 0 0 0 0 0 0 0 0 0 0 0 0
0 0 0 0 0 0 0 0 0 0 0 0 0 0 0 0 0 0 0 0 0 0 0 0 0 0 0 0 0 0 0 0 0 0 0 0 0 0 0 0 0 0 0 0 0 0 0 0 0
0 0 0 0 0 0 0 0 0 0 0 0 0 0 0 0 0 0 0 0 0 0 0 0 0 0 0 0 0 0 0 0 0 0 0 0 0 0 0 0 0 0 0 0 0 0 0 0 0
0 0 0 0 0 0 0 0 0 0 0 0 0 0 0 0 0 0 0 0 0 0 0 0 0 0 0 0 0 0 0 0 0 0 0 0 0 0 0 0 0 0 0 0 0 0 0 0 0
0 0 0 0 0 0 0 0 0 0 0 0 0 0 0 0 0 0 0 0 0 0 0 0 0 0 0 0 0 0 0 0 0 0 0 0 0 0 0 0 0 0 0 0 0 0 0 0 0
0 0 0 0 0 0 0 0 0 0 0 0 0 0 0 0 0 0 0 0 0 0 0 0 0 0 0 0 0 0 0 0 0 0 0 0 0 0 0 0 0 0 0 0 0 0 0 0 0
0 0 0 0 0 0 0 0 0 0 0 0 0 0 0 0 0 0 0 0 0 0 0 0 0 0 0 0 0 0 0 0 0 0 0 0 0 0 0 0 0 0 0 0 0 0 0 0 0
0 0 0 0 0 0 0 0 0 0 0 0 0 0 0 0 0 0 0 0 0 0 0 0 0 0 0 0 0 0 0 0 0 0 0 0 0 0 0 0 0 0 0 0 0 0 0 0 0
0 0 0 0 0 0 0 0 0 0 0 0 0 0 0 0 0 0 0 0 0 0 0 0 0 0 0 0 0 0 0 0 0 0 0 0 0 0 0 0 0 0 0 0 0 0 0 0 0
Wind_Speed
10 5 4 6 10 11 9 7 4 6 6 5 8 10 9 8 8 8 3 9 11 12 14 18 27 27 27 27 27 27 27 27 27 27 28 28 27 26 26 27 26 25 24 22 20 17 15 15 14
4 4 8 9 9 8 6 5 8 6 10 8 7 7 7 7 4 5 6 9 13 15 15 18 26 27 27 27 27 27 27 27 27 27 27 27 28 27 26 27 26 26 26 25 23 21 19 17 16
2 7 10 9 8 5 5 3 9 12 10 5 6 5 6 5 5 5 6 10 14 15 15 18 27 28 27 27 28 28 27 28 27 28 28 27 27 27 26 27 27 26 26 26 25 24 23 21 18
5 9 10 12 13 6 4 4 3 4 8 8 6 7 6 7 5 5 8 13 13 12 13 18 28 28 27 27 28 28 28 28 28 28 28 28 28 27 26 27 27 27 27 26 25 25 25 24 22
7 9 11 8 7 3 4 8 9 8 6 6 6 9 6 7 7 8 11 14 12 11 12 17 28 28 28 27 28 27 27 28 28 28 28 28 28 28 26 27 27 27 27 27 26 25 26 26 25
8 8 9 6 5 3 2 5 5 8 5 4 7 7 6 6 9 9 11 11 10 11 12 15 25 28 28 27 28 27 27 28 27 27 28 27 28 27 27 28 28 28 27 27 26 26 26 26 25
8 8 7 7 5 3 2 3 5 4 6 5 3 7 5 7 6 7 9 9 9 10 12 13 14 18 24 26 27 27 27 27 27 27 28 27 27 27 27 28 28 28 28 27 27 27 27 26 25
7 9 6 5 5 3 2 4 4 5 4 4 5 7 5 3 5 8 9 9 9 10 11 12 12 14 14 13 24 27 26 27 27 27 28 27 25 24 26 26 27 28 27 27 27 27 27 27 25
7 9 4 3 7 6 5 5 5 7 10 10 8 8 6 4 8 10 10 10 11 13 11 11 12 14 14 13 19 20 22 24 24 21 26 22 12 13 15 23 27 28 27 27 27 27 27 26 23
9 7 2 1 6 8 6 6 6 5 8 8 8 8 8 9 10 11 11 11 12 12 11 10 12 14 14 13 11 8 11 11 12 12 13 11 11 12 17 23 26 27 26 26 26 27 23 19 13
8 7 5 6 8 8 6 5 4 8 5 5 7 6 7 9 8 8 7 6 7 7 11 12 11 12 11 9 9 6 7 7 9 11 12 10 8 9 10 9 12 14 17 12 17 16 12 12 12
9 7 6 5 5 6 5 5 5 4 7 8 9 8 7 8 7 6 6 6 6 8 9 9 8 9 9 8 7 6 7 7 8 10 11 9 7 8 9 8 10 10 8 11 11 10 13 14 14
7 5 5 9 12 9 10 8 7 7 9 9 9 9 8 7 5 5 5 6 6 7 7 7 7 9 9 8 8 9 7 9 9 8 9 10 8 9 9 8 9 10 9 10 11 11 13 14 14
7 9 8 8 8 4 10 7 6 7 8 8 9 8 7 6 5 5 5 6 5 5 7 8 7 9 9 8 8 7 7 8 8 8 10 11 9 9 9 9 8 9 10 10 10 12 12 12 12
7 8 4 3 4 5 7 4 3 8 8 8 7 7 6 5 5 5 4 5 5 5 6 8 9 9 8 8 9 8 7 8 8 8 9 11 11 10 10 9 8 9 10 11 11 11 10 12 12
5 5 3 4 5 6 5 3 5 7 9 7 6 6 6 4 4 4 4 5 4 5 5 7 10 8 8 7 7 6 6 7 7 7 8 11 12 12 10 9 8 10 9 10 10 10 11 12 12
2 1 2 4 6 6 5 4 6 6 9 7 6 6 6 5 4 4 4 4 4 4 5 6 7 8 7 7 6 6 5 5 6 6 6 10 12 13 10 8 8 11 9 9 11 11 11 13 13
2 4 3 5 5 6 4 4 5 5 8 8 6 6 6 5 4 4 3 3 3 4 5 6 7 7 7 6 5 5 5 5 5 5 7 10 10 12 10 7 9 10 9 9 10 12 12 11 12
2 3 3 3 2 3 5 6 7 5 6 7 6 5 5 5 4 3 2 2 4 6 7 6 7 7 7 7 8 8 9 8 7 7 9 10 11 12 10 9 9 9 9 10 12 12 13 11 11
3 4 2 1 1 1 2 4 4 4 6 7 7 6 5 4 4 2 2 4 5 4 5 5 6 7 7 5 5 5 6 5 6 6 7 8 10 11 11 10 9 9 9 10 11 12 10 10 10
4 2 2 3 1 1 2 1 4 2 2 3 4 5 4 5 4 2 2 3 2 3 5 7 6 7 7 7 5 7 5 4 5 6 6 8 10 10 9 10 9 9 8 8 11 10 12 12 11
1 2 2 3 2 2 2 4 4 5 3 3 3 4 4 4 3 2 1 1 1 3 4 5 6 6 6 6 6 9 9 8 8 7 7 9 9 10 10 11 9 9 9 9 10 11 10 12 11
3 2 2 2 2 1 1 2 4 4 5 5 4 4 4 4 3 2 1 1 2 4 5 5 6 6 6 6 7 7 7 6 7 8 9 8 7 8 10 11 9 10 9 9 11 11 11 10 10
2 3 2 4 3 3 4 5 6 5 6 5 5 5 5 4 3 2 2 3 4 5 5 6 6 6 6 7 7 8 9 9 11 11 9 9 7 7 10 12 8 10 9 10 10 10 11 11 12
6 6 6 6 5 6 2 4 5 3 4 7 8 6 5 3 2 3 4 5 6 6 7 6 7 7 7 7 8 8 8 8 10 11 10 11 9 9 10 11 10 9 9 10 10 11 11 11 12
3 4 4 2 5 7 4 4 4 4 3 5 7 6 5 3 3 4 4 4 5 7 7 7 7 7 8 8 8 8 8 7 7 9 10 11 10 10 11 11 11 11 11 12 11 10 11 10 11
2 2 4 4 2 5 7 5 2 2 3 5 6 5 4 3 3 4 4 5 6 6 7 7 8 8 8 9 9 8 8 9 9 9 9 9 10 11 13 13 12 12 12 12 11 9 12 11 11
2 4 4 2 2 6 8 6 5 8 8 6 6 5 4 3 3 4 4 5 5 5 6 7 7 8 8 9 8 12 10 10 10 10 11 11 12 12 13 13 13 13 13 12 11 11 11 12 12
1 1 3 3 3 3 6 9 4 9 9 8 7 5 4 3 3 3 4 4 5 6 6 7 7 8 9 9 9 10 10 10 10 10 11 11 11 13 13 14 14 14 14 12 12 12 13 13 13
1 2 4 2 3 3 4 10 2 5 6 8 7 6 5 4 2 2 3 4 5 6 7 8 8 9 9 9 9 10 10 10 10 11 12 12 12 12 13 14 14 15 15 14 14 14 13 13 12
Wind_Direction
330 346 57 55 59 59 55 11 37 114 78 54 62 78 86 69 82 107 312 355 10 12 5 2 12 11 12 14 15 16 16 16 17 17 15 13 12 12 12 9 6 2 357 351 344 334 322 314 310
337 27 50 54 66 66 52 4 54 76 136 135 79 75 73 73 64 73 15 14 28 23 11 5 13 12 11 13 14 13 14 14 14 15 14 13 10 9 10 8 5 3 360 356 351 344 334 321 309
41 56 61 58 61 75 85 28 87 74 76 90 85 59 62 51 42 52 18 33 35 26 13 5 15 13 12 13 14 12 13 13 12 13 11 11 9 7 7 6 2 0 359 356 352 349 344 334 320
75 52 61 65 72 35 34 322 257 96 64 45 96 64 60 27 48 60 43 44 37 25 13 7 16 14 13 14 14 12 13 12 11 10 9 8 7 4 4 5 0 358 356 353 352 350 348 343 335
64 68 71 65 71 62 23 15 43 53 65 36 75 87 64 19 56 57 49 44 36 25 18 13 16 14 13 13 13 12 13 11 10 8 7 6 5 2 2 3 358 355 354 351 350 350 349 346 341
64 68 80 91 111 127 52 25 51 50 77 71 85 100 66 14 50 46 48 43 36 27 21 17 15 14 12 12 12 10 11 10 9 7 6 6 4 0 1 360 355 353 352 349 349 349 346 344 342
87 79 91 117 126 111 112 69 46 49 52 29 82 92 90 27 42 51 48 40 33 29 23 17 13 12 9 9 10 9 10 8 8 6 5 5 4 0 0 357 353 352 351 350 348 347 345 343 340
96 93 92 114 132 145 99 72 66 51 52 27 58 93 88 42 46 51 46 38 31 29 24 17 12 10 3 360 7 7 7 7 7 5 3 5 3 359 358 354 350 351 349 350 348 347 344 343 340
67 75 91 139 153 147 138 104 66 48 69 59 59 83 106 83 55 47 38 32 28 24 20 15 13 10 3 1 3 4 4 3 3 1 1 2 357 352 356 349 349 349 347 349 346 346 344 343 338
58 89 87 1 141 132 119 105 119 91 75 76 79 78 79 64 54 48 37 26 21 17 14 17 17 10 4 1 356 358 358 355 354 355 357 357 355 351 355 346 347 347 345 347 345 344 344 342 334
63 100 102 66 88 100 97 80 89 118 88 120 122 109 82 71 62 58 47 36 23 15 16 15 19 8 1 357 352 359 352 350 350 352 355 356 352 349 349 344 343 340 342 342 340 339 338 336 332
79 58 86 104 81 82 91 98 80 92 134 143 134 126 106 88 75 69 57 42 31 26 15 5 18 7 359 357 348 358 353 351 351 348 352 356 352 349 347 342 337 336 337 337 336 332 331 333 329
77 86 58 81 77 80 89 90 104 119 140 136 123 113 113 110 98 86 77 59 43 29 8 358 15 12 2 2 355 0 352 351 346 346 351 355 351 348 344 340 336 332 335 336 332 331 329 331 327
97 96 100 91 91 93 109 114 113 160 152 130 123 121 125 121 117 93 69 56 44 30 13 0 15 13 1 2 355 353 351 348 344 346 350 353 349 345 343 338 333 336 337 331 328 324 326 324 322
95 88 89 127 114 134 118 84 157 167 147 135 134 134 131 123 111 100 92 75 53 37 18 8 10 8 356 356 354 352 344 344 345 346 349 349 348 345 342 336 336 339 334 330 328 323 326 321 320
94 101 130 201 160 171 127 162 205 168 143 146 147 143 140 131 117 115 102 88 64 41 24 11 6 359 351 349 343 337 337 339 341 343 346 346 347 345 341 334 338 337 336 334 329 330 327 322 318
117 145 191 199 196 178 167 186 211 170 147 151 157 158 156 148 128 114 97 89 68 45 24 10 357 352 346 340 335 325 327 332 334 337 343 345 345 344 339 332 337 337 336 334 331 331 325 321 316
223 207 187 208 205 172 167 183 194 171 145 151 158 161 160 153 148 131 96 82 64 37 24 11 353 347 342 339 338 336 340 339 337 336 342 344 343 342 336 337 337 338 336 333 330 327 324 318 316
220 142 166 212 203 176 184 178 192 168 139 151 165 166 153 144 140 122 96 69 42 25 12 2 351 346 350 351 352 348 346 341 340 340 340 340 340 339 336 341 334 336 333 328 326 327 323 322 320
84 108 143 229 258 164 158 195 197 177 171 172 170 166 150 134 137 134 63 43 34 8 349 353 351 346 347 343 334 330 325 319 325 320 323 330 336 335 340 337 332 331 328 325 327 324 323 320 323
51 102 188 208 209 79 126 227 188 207 168 159 134 139 139 135 136 129 50 43 10 345 345 359 346 341 338 335 333 335 322 315 326 325 328 332 331 330 327 328 326 326 325 322 323 319 325 319 314
304 213 203 151 142 274 161 290 213 194 193 173 136 130 126 120 127 120 62 34 353 341 347 348 339 334 332 336 341 343 345 334 330 325 320 321 322 323 326 325 322 323 321 319 319 325 316 314 313
264 246 224 167 171 316 236 241 282 163 208 203 177 157 146 144 135 115 100 66 18 358 348 339 333 328 328 334 334 331 328 319 320 322 320 317 316 317 323 322 321 321 319 316 315 315 314 311 307
313 44 63 56 75 307 218 182 258 206 209 177 167 158 156 149 131 104 55 31 5 351 342 336 333 326 328 332 330 326 324 321 325 327 323 325 321 318 318 320 319 317 315 315 314 313 310 308 304
40 54 20 357 359 273 223 193 252 211 184 163 162 165 161 147 120 52 30 9 351 344 338 334 333 331 333 333 330 325 322 319 321 325 326 326 325 323 317 319 317 315 312 312 311 311 308 305 304
5 100 121 267 271 292 319 254 251 213 179 133 139 148 144 123 74 50 29 3 347 341 338 337 338 337 336 335 329 321 319 320 319 319 322 322 322 318 314 316 313 311 312 313 309 306 304 303 302
75 106 156 151 291 285 284 279 281 216 183 142 140 136 133 105 68 46 19 2 349 342 340 338 339 338 335 331 324 321 321 317 315 315 315 318 318 319 320 315 311 310 310 308 307 302 303 301 298
137 142 92 115 300 294 292 280 241 201 207 178 162 154 142 107 64 37 11 353 344 339 335 337 339 334 326 324 321 336 324 316 316 318 319 319 317 316 315 315 313 311 310 307 305 303 302 301 297
148 173 135 134 174 216 288 278 230 189 179 170 167 160 149 121 74 24 351 340 338 339 341 340 338 333 329 326 322 323 320 319 319 319 319 317 315 317 318 317 315 313 311 310 307 304 304 302 301
235 204 153 173 259 207 240 276 75 142 142 144 149 149 143 120 89 10 339 340 345 347 345 343 337 333 330 328 328 327 323 322 322 321 320 318 318 318 318 317 316 315 314 311 306 304 303 300 299